SID,Date,Time,pH,Iron,Mn,Color,Turbidity,Analyst
29302,01/01/1993,"0700      ",5.93,1.38,0.580,63,1.10, 
29303,01/02/1993,"0730      ",5.95,1.41,0.530,58,0.90, 
29304,01/03/1993,"0625      ",5.99,1.36,0.550,56,1.05, 
29305,01/04/1993,"0800      ",5.97,1.27,0.710,56,0.65, 
29306,01/05/1993,"0640      ",6.01,1.25,0.660,59,0.95, 
29307,01/06/1993,"0635      ",5.99,1.39,0.640,62,1.30, 
29308,01/07/1993,"0735      ",6.04,0.99,0.370,56,1.00, 
29309,01/08/1993,"0710      ",5.94,1.47,0.330,81,2.60, 
29310,01/09/1993,"0630      ",5.98,1.31,0.320,74,1.70, 
29311,01/10/1993,"0630      ",5.97,0.55,0.280,50,1.05, 
29312,01/11/1993,"0630      ",5.94,0.98,0.460,46,0.95, 
29313,01/12/1993,"0655      ",5.98,0.91,0.370,40,0.59, 
29314,01/13/1993,"0635      ",5.97,1.08,0.450,47,0.96, 
29315,01/14/1993,"0650      ",5.97,0.92,0.440,41,0.55, 
29316,01/15/1993,"0700      ",5.92,0.91,0.030,42,0.80, 
29317,01/16/1993,"0630      ",5.96,0.85,0.210,46,0.75, 
29318,01/17/1993,"0630      ",5.90,1.00,0.560,49,1.10, 
29319,01/18/1993,"0700      ",5.99,0.87,0.390,38,0.48, 
29320,01/19/1993,"0815      ",5.99,0.98,0.400,40,0.86, 
29321,01/20/1993,"0640      ",6.00,1.00,0.480,41,0.83, 
29322,01/21/1993,"0640      ",6.01,1.00,0.460,39,0.83, 
29323,01/22/1993,"0650      ",5.96,1.01,0.540,43,1.10, 
29324,01/23/1993,"0655      ",5.94,0.99,0.500,42,1.10, 
29325,01/24/1993,"0735      ",5.93,0.95,0.450,42,0.90, 
29326,01/25/1993,"0645      ",5.95,0.91,0.430,39,0.75, 
29327,01/26/1993,"0655      ",6.02,0.92,0.350,39,0.70, 
29328,01/27/1993,"0650      ",5.93,0.96,0.460,40,0.75, 
29329,01/28/1993,"0645      ",6.00,0.98,0.350,41,0.94, 
29330,01/29/1993,"0650      ",5.90,0.68,0.370,47,2.20, 
29331,01/30/1993,"0645      ",5.97,0.81,0.320,53,1.70, 
29332,01/31/1993,"0645      ",6.01,0.95,0.470,41,0.97, 
29333,02/01/1993,"0645      ",5.99,0.85,0.420,38,0.69, 
29334,02/02/1993,"0650      ",5.94,0.94,0.450,38,0.94, 
29335,02/03/1993,"0700      ",5.97,0.96,0.440,40,1.00, 
29336,02/04/1993,"0735      ",5.93,0.98,0.850,46,1.20, 
29337,02/05/1993,"0645      ",5.93,1.10,0.400,59,2.00, 
29338,02/06/1993,"0630      ",5.95,0.88,0.380,41,1.30, 
29339,02/07/1993,"0645      ",5.99,1.02,0.400,46,0.91, 
29340,02/08/1993,"0720      ",5.97,0.97,0.490,42,0.69, 
29341,02/09/1993,"0745      ",5.95,0.89,0.470,42,0.59, 
29342,02/10/1993,"0700      ",5.94,0.88,0.470,39,0.56, 
29343,02/11/1993,"0645      ",5.97,0.61,0.360,42,0.82, 
29344,02/12/1993,"0650      ",5.88,0.78,0.460,44,0.88, 
29345,02/13/1993,"0630      ",5.93,0.63,0.400,37,0.75, 
29346,02/14/1993,"0644      ",5.96,0.86,0.370,37,0.57, 
29347,02/15/1993,"0630      ",5.94,0.91,0.380,42,0.83, 
29348,02/16/1993,"0650      ",5.95,0.81,0.440,39,0.60, 
29349,02/17/1993,"0650      ",5.90,0.91,0.420,42,0.79, 
29350,02/18/1993,"0950      ",5.94,0.92,0.470,38,0.52, 
29351,02/19/1993,"0655      ",5.92,0.99,0.390,49,1.40, 
29352,02/20/1993,"0630      ",5.96,0.97,0.410,51,1.40, 
29353,02/21/1993,"0650      ",5.98,0.87,0.350,40,0.60, 
29354,02/22/1993,"0658      ",5.96,0.84,0.450,38,0.56, 
29355,02/23/1993,"0649      ",5.95,0.86,0.250,36,0.60, 
29356,02/24/1993,"0640      ",5.99,0.86,0.320,37,0.87, 
29357,02/25/1993,"0650      ",6.05,0.86,0.400,33,0.60, 
29358,02/26/1993,"0645      ",5.94,0.78,0.310,40,0.90, 
29359,02/27/1993,"0640      ",5.97,0.84,0.360,35,0.85, 
29360,02/28/1993,"0652      ",6.00,0.86,0.160,36,0.60, 
29361,03/01/1993,"0655      ",6.04,0.86,0.400,40,0.57, 
29362,03/02/1993,"0650      ",6.04,0.86,0.490,43,0.58, 
29363,03/03/1993,"0715      ",6.03,0.89,0.390,43,0.66, 
29364,03/04/1993,"0638      ",5.98,0.75,0.380,43,0.70, 
29365,03/05/1993,"0650      ",5.90,0.86,0.550,40,0.68, 
29366,03/06/1993,"0645      ",5.96,0.70,0.420,41,0.73, 
29367,03/07/1993,"0645      ",6.03,0.93,0.430,45,0.85, 
29368,03/08/1993,"0640      ",6.12,0.81,0.450,39,0.53, 
29369,03/09/1993,"0745      ",6.17,0.81,0.440,42,0.70, 
29370,03/10/1993,"0725      ",6.14,0.84,0.270,46,0.80, 
29371,03/11/1993,"0735      ",6.17,0.83,0.400,46,0.80, 
29372,03/12/1993,"0740      ",6.17,0.62,0.390,50,0.90, 
29373,03/13/1993,"0640      ",6.13,0.72,0.370,47,0.87, 
29374,03/14/1993,"0629      ",5.90,0.74,0.360,63,0.77, 
29375,03/15/1993,"0758      ",6.00,0.83,0.380,65,0.87, 
29376,03/16/1993,"0630      ",6.03,0.72,0.360,65,0.89, 
29377,03/17/1993,"0800      ",6.00,0.81,0.240,74,1.20, 
29378,03/18/1993,"0630      ",5.99,0.75,0.280,64,0.67, 
29379,03/19/1993,"0630      ",6.01,0.72,0.250,72,0.85, 
29380,03/20/1993,"0635      ",5.97,0.80,0.310,68,0.70, 
29381,03/21/1993,"0707      ",5.94,0.81,0.360,76,0.89, 
29382,03/22/1993,"0650      ",5.84,0.87,0.380,76,0.81, 
29383,03/23/1993,"0650      ",6.01,0.80,0.420,69,0.57, 
29384,03/24/1993,"1025      ",6.20,0.84,0.370,69,0.60, 
29385,03/25/1993,"0655      ",5.83,0.81,0.390,68,0.59, 
29386,03/26/1993,"0715      ",5.95,0.79,0.400,70,0.60, 
29387,03/27/1993,"0700      ",5.98,0.75,0.420,72,0.63, 
29388,03/28/1993,"0645      ",5.91,0.78,0.240,80,0.67, 
29389,03/29/1993,"0645      ",5.88,0.78,0.270,82,0.65, 
29390,03/30/1993,"0650      ",5.90,0.75,0.260,77,0.62, 
29391,03/31/1993,"0630      ",5.90,0.82,0.380,80,0.83, 
29392,04/01/1993,"0645      ",5.85,0.75,0.390,74,0.73, 
29393,04/02/1993,"0750      ",5.92,0.57,0.200,75,0.90, 
29394,04/03/1993,"0630      ",5.96,0.68,0.270,80,0.96, 
29395,04/04/1993,"0640      ",5.90,0.78,0.350,90,0.82, 
29396,04/05/1993,"0635      ",5.89,0.82,0.380,101,1.00, 
29397,04/06/1993,"0634      ",5.87,0.97,0.240,99,1.15, 
29398,04/07/1993,"0635      ",5.86,0.75,0.360,80,0.77, 
29399,04/08/1993,"0649      ",5.82,0.74,0.370,72,0.76, 
29400,04/09/1993,"0645      ",5.79,0.75,0.330,72,0.75, 
29401,04/10/1993,"0630      ",5.87,0.79,0.380,78,0.83, 
29402,04/11/1993,"0710      ",5.73,0.71,0.370,60,0.71, 
29403,04/12/1993,"0645      ",5.76,0.74,0.290,57,0.73, 
29404,04/13/1993,"0640      ",5.75,0.73,0.220,54,0.78, 
29405,04/14/1993,"0650      ",5.73,0.78,0.320,56,0.95, 
29406,04/15/1993,"0646      ",5.73,0.79,0.380,54,1.00, 
29407,04/16/1993,"0650      ",6.02,0.84,0.240,55,1.10, 
29408,04/17/1993,"0630      ",6.00,0.74,0.300,52,1.12, 
29409,04/18/1993,"0640      ",6.00,0.68,0.230,59,1.00, 
29410,04/19/1993,"0635      ",5.98,0.86,0.420,61,1.00, 
29411,04/20/1993,"0635      ",6.05,0.75,0.350,55,0.88, 
29412,04/21/1993,"0630      ",5.88,0.76,0.360,56,0.89, 
29413,04/22/1993,"0708      ",5.92,0.92,0.330,56,1.00, 
29414,04/23/1993,"0645      ",5.90,0.70,0.190,60,1.20, 
29415,04/24/1993,"0620      ",5.95,0.75,0.240,53,1.05, 
29416,04/25/1993,"0623      ",5.87,0.89,0.290,59,1.05, 
29417,04/26/1993,"0635      ",5.86,0.87,0.390,54,0.95, 
29418,04/27/1993,"0656      ",5.81,1.90,0.390,82,3.60, 
29419,04/28/1993,"0720      ",5.84,1.09,0.290,71,2.30, 
29420,04/29/1993,"0645      ",5.89,1.18,0.440,64,1.70, 
29421,04/30/1993,"0700      ",5.91,1.35,0.390,65,1.90, 
29422,05/01/1993,"0630      ",5.96,1.23,0.400,59,1.70, 
29423,05/02/1993,"0646      ",6.00,1.46,0.370,83,3.00, 
29424,05/03/1993,"0736      ",5.89,0.89,0.550,53,0.56, 
29425,05/04/1993,"0649      ",5.83,0.88,0.190,54,0.59, 
29426,05/05/1993,"0658      ",5.98,0.91,0.360,54,0.60, 
29427,05/06/1993,"0659      ",5.94,0.86,0.450,57,0.62, 
29428,05/07/1993,"0630      ",5.98,0.74,0.380,60,0.71, 
29429,05/08/1993,"0630      ",5.97,0.80,0.330,57,0.85, 
29430,05/09/1993,"0655      ",6.10,0.88,0.430,68,0.77, 
29431,05/10/1993,"0655      ",5.89,0.91,0.380,65,0.88, 
29432,05/11/1993,"0700      ",5.98,0.90,0.420,64,0.67, 
29433,05/12/1993,"0652      ",6.00,0.88,0.380,59,0.65, 
29434,05/13/1993,"0643      ",5.98,0.86,0.420,59,0.62, 
29435,05/14/1993,"0705      ",5.76,0.87,0.300,66,0.67, 
29436,05/15/1993,"0630      ",5.93,0.84,0.400,57,0.70, 
29437,05/16/1993,"0933      ",5.83,1.00,0.390,78,1.00, 
29438,05/17/1993,"0641      ",5.84,0.90,0.380,73,0.87, 
29439,05/18/1993,"0730      ",5.82,1.01,0.390,91,1.20, 
29440,05/19/1993,"0725      ",5.87,0.96,0.120,88,1.00, 
29441,05/20/1993,"0735      ",5.91,0.73,0.230,49,1.10, 
29442,05/21/1993,"0635      ",5.83,0.87,0.260,79,0.90, 
29443,05/22/1993,"0630      ",5.94,0.74,0.200,58,0.85, 
29444,05/23/1993,"0730      ",5.77,0.86,0.190,100,2.00, 
29445,05/24/1993,"0634      ",5.79,0.92,0.380,77,0.95, 
29446,05/25/1993,"0655      ",5.78,0.92,0.250,76,0.92, 
29447,05/26/1993,"0652      ",5.76,0.98,0.460,81,0.68, 
29448,05/27/1993,"0644      ",5.69,0.96,0.390,83,0.58, 
29449,05/28/1993,"0640      ",5.50,1.08,0.190,100,1.00, 
29450,05/29/1993,"0645      ",5.75,0.96,0.230,96,0.97, 
29451,05/30/1993,"0627      ",5.76,1.27,0.400,93,1.10, 
29452,05/31/1993,"0715      ",5.77,0.97,0.360,106,1.30, 
29453,06/01/1993,"0632      ",5.77,1.12,0.380,96,1.00, 
29454,06/02/1993,"0650      ",5.86,0.97,0.090,93,0.82, 
29455,06/03/1993,"0645      ",5.80,1.08,0.380,91,1.25, 
29456,06/04/1993,"0700      ",5.78,0.96,0.470,85,0.80, 
29457,06/05/1993,"0815      ",5.81,1.15,0.500,94,1.75, 
29458,06/06/1993,"0640      ",5.80,1.00,0.440,78,0.82, 
29459,06/07/1993,"0645      ",5.80,0.99,0.470,73,0.80, 
29460,06/08/1993,"0650      ",5.82,1.03,0.470,86,1.05, 
29461,06/09/1993,"0644      ",5.50,1.01,0.540,73,0.86, 
29462,06/10/1993,"0637      ",5.83,1.01,0.540,67,0.95, 
29463,06/11/1993,"0655      ",5.79,1.22,0.460,77,1.30, 
29464,06/13/1993,"0647      ",5.83,1.02,0.510,77,1.00, 
29465,06/14/1993,"0650      ",5.88,1.01,0.510,56,0.85, 
29466,06/15/1993,"0648      ",5.89,1.14,0.630,59,1.40, 
29467,06/16/1993,"0649      ",5.82,0.64,0.000,50,0.81, 
29468,06/17/1993,"0730      ",5.80,0.64,0.450,104,1.00, 
29469,06/18/1993,"0650      ",5.77,0.88,0.500,126,1.10, 
29470,06/19/1993,"0630      ",5.92,1.23,0.690,87,2.00, 
29471,06/20/1993,"0804      ",5.93,1.00,0.640,73,0.81, 
29472,06/21/1993,"0641      ",5.85,1.13,0.540,49,0.92, 
29473,06/22/1993,"0701      ",5.89,1.23,0.660,49,1.15, 
29474,06/23/1993,"0730      ",5.90,1.16,0.630,57,1.07, 
29475,06/24/1993,"0644      ",5.89,1.14,0.670,44,0.86, 
29476,06/25/1993,"0650      ",5.84,0.87,0.520,58,1.10, 
29477,06/26/1993,"0635      ",5.87,0.95,0.550,62,0.91, 
29478,06/27/1993,"0635      ",5.92,1.21,0.680,44,1.10, 
29479,06/28/1993,"0641      ",5.90,1.17,0.740,40,0.91, 
29480,06/29/1993,"0648      ",5.91,1.15,0.690,35,0.87, 
29481,06/30/1993,"0649      ",5.87,1.12,0.710,35,0.82, 
29482,07/01/1993,"0645      ",5.84,1.19,0.750,37,0.97, 
29483,07/02/1993,"0645      ",5.90,1.99,0.870,59,2.50, 
29484,07/03/1993,"0630      ",6.02,1.02,0.700,46,1.40, 
29485,07/04/1993,"0625      ",5.99,2.71,0.770,85,5.00, 
29486,07/05/1993,"0626      ",5.82,4.27,0.860,135,9.25, 
29487,07/06/1993,"0644      ",5.87,1.58,0.750,44,1.95, 
29488,07/07/1993,"0644      ",5.88,1.26,0.820,32,0.86, 
29489,07/08/1993,"0720      ",6.02,1.87,0.750,56,0.93, 
29490,07/09/1993,"0650      ",5.80,1.08,0.520,44,1.50, 
29491,07/10/1993,"0630      ",5.87,1.32,0.480,48,1.20, 
29492,07/11/1993,"0649      ",5.89,1.26,0.800,31,0.91, 
29493,07/12/1993,"0655      ",5.89,1.27,0.810,30,0.85, 
29494,07/13/1993,"0652      ",5.85,1.40,0.820,32,1.15, 
29495,07/14/1993,"0644      ",5.90,1.28,0.820,27,0.93, 
29496,07/15/1993,"0655      ",5.88,1.76,0.840,42,2.40, 
29497,07/16/1993,"0645      ",5.84,1.81,0.800,42,1.40, 
29498,07/17/1993,"0650      ",5.90,1.15,0.870,46,2.00, 
29499,07/18/1993,"0655      ",5.84,1.31,0.850,28,0.97, 
29500,07/19/1993,"0658      ",5.90,1.25,0.750,25,0.75, 
29501,07/20/1993,"0643      ",5.90,1.27,0.870,25,0.79, 
29502,07/21/1993,"0654      ",5.89,1.35,0.910,31,1.10, 
29503,07/22/1993,"0637      ",5.94,1.43,0.890,32,1.20, 
29504,07/23/1993,"0650      ",5.86,1.45,0.680,45,1.20, 
29505,07/24/1993,"0635      ",5.93,1.48,0.720,41,1.30, 
29506,07/25/1993,"0638      ",5.94,1.34,0.900,25,1.05, 
29507,07/26/1993,"0642      ",5.94,1.32,0.000,23,0.84, 
29508,07/27/1993,"0641      ",5.93,1.46,0.900,29,1.40, 
29509,07/28/1993,"0655      ",5.91,1.36,0.830,24,0.96, 
29510,07/29/1993,"0641      ",5.93,1.34,0.930,22,0.84, 
29511,07/30/1993,"0636      ",5.96,1.39,0.920,26,0.94, 
29512,07/31/1993,"0635      ",6.04,1.16,0.810,43,1.70, 
29513,08/01/1993,"0730      ",5.92,1.98,0.950,57,3.40, 
29514,08/02/1993,"0638      ",5.92,1.39,0.920,23,0.99, 
29515,08/03/1993,"0647      ",5.92,1.37,0.940,18,0.83, 
29516,08/04/1993,"0643      ",5.96,1.38,0.910,22,1.00, 
29517,08/05/1993,"0735      ",5.88,1.62,0.900,25,1.20, 
29518,08/06/1993,"0650      ",5.94,1.74,0.820,38,1.40, 
29519,08/07/1993,"0640      ",5.97,1.63,0.790,48,1.30, 
29520,08/08/1993,"0644      ",5.95,1.45,0.880,28,1.10, 
29521,08/09/1993,"0643      ",5.73,1.45,0.760,30,1.20, 
29522,08/10/1993,"0649      ",5.54,1.36,0.900,24,0.84, 
29523,08/11/1993,"0641      ",5.53,1.41,0.900,27,0.91, 
29524,08/12/1993,"0650      ",5.74,1.41,0.880,26,0.87, 
29525,08/13/1993,"0640      ",5.97,2.00,1.020,36,1.60, 
29526,08/14/1993,"0725      ",6.07,1.27,0.850,50,3.00, 
29527,08/15/1993,"0830      ",6.15,1.46,0.810,51,2.70, 
29528,08/16/1993,"0648      ",5.99,1.42,0.810,26,0.95, 
29529,08/17/1993,"0700      ",6.00,1.47,0.820,30,1.00, 
29530,08/18/1993,"0640      ",5.95,1.39,0.870,42,1.70, 
29531,08/19/1993,"0650      ",6.03,1.47,0.850,45,1.40, 
29532,08/20/1993,"0650      ",5.85,1.17,0.290,78,1.80, 
29533,08/21/1993,"0630      ",5.92,1.83,0.550,133,3.60, 
29534,08/22/1993,"0740      ",5.84,1.10,0.520,58,1.50, 
29535,08/23/1993,"0630      ",5.87,1.29,0.560,63,1.60, 
29536,08/24/1993,"0625      ",5.90,1.43,0.630,52,1.30, 
29537,08/25/1993,"0655      ",6.05,2.16,0.560,154,5.10, 
29538,08/26/1993,"0725      ",5.90,1.38,0.360,98,2.20, 
29539,08/27/1993,"0650      ",5.84,1.21,0.340,93,1.60, 
29540,08/28/1993,"0645      ",6.11,1.02,0.580,108,2.80, 
29541,08/29/1993,"0730      ",5.86,1.29,0.550,81,1.90, 
29542,08/30/1993,"0653      ",5.85,1.20,0.560,81,1.50, 
29543,08/31/1993,"0705      ",5.84,1.18,0.540,71,1.20, 
29544,09/01/1993,"0640      ",5.85,1.38,0.680,81,1.65, 
29545,09/02/1993,"0735      ",5.93,1.43,0.630,78,1.80, 
29546,09/03/1993,"0645      ",5.90,1.50,0.650,84,1.70, 
29547,09/04/1993,"0652      ",5.84,1.29,0.750,58,1.10, 
29548,09/05/1993,"0645      ",5.87,2.60,0.500,174,1.50, 
29549,09/06/1993,"0638      ",5.83,1.44,0.710,67,1.70, 
29550,09/07/1993,"0643      ",5.86,1.22,0.670,57,1.15, 
29551,09/08/1993,"0638      ",5.85,1.22,0.680,58,1.05, 
29552,09/09/1993,"0725      ",5.88,1.24,0.330,72,1.20, 
29553,09/10/1993,"0640      ",5.81,1.35,0.480,72,1.50, 
29554,09/11/1993,"0644      ",5.85,1.40,0.770,59,1.50, 
29555,09/12/1993,"0643      ",5.85,1.28,0.760,49,1.05, 
29556,09/13/1993,"0644      ",5.86,1.31,0.780,50,1.05, 
29557,09/14/1993,"0643      ",5.89,1.35,0.750,44,1.00, 
29558,09/15/1993,"0642      ",5.94,1.41,0.790,43,1.20, 
29559,09/16/1993,"0730      ",5.92,2.24,0.580,97,3.70, 
29560,09/17/1993,"0725      ",5.87,1.38,0.830,55,1.80, 
29561,09/18/1993,"0640      ",5.90,1.27,0.730,61,1.60, 
29562,09/19/1993,"0750      ",6.12,1.32,0.600,64,0.80, 
29563,09/20/1993,"0735      ",5.93,1.51,0.660,51,1.40, 
29564,09/21/1993,"0735      ",5.96,1.88,0.540,86,3.00, 
29565,09/22/1993,"0645      ",5.99,1.45,0.800,35,0.84, 
29566,09/23/1993,"0643      ",5.90,1.39,0.860,32,0.71, 
29567,09/24/1993,"0715      ",5.86,1.32,0.450,42,1.00, 
29568,09/25/1993,"0640      ",5.97,1.37,0.750,71,1.80, 
29569,09/26/1993,"0630      ",5.88,1.25,0.670,69,0.95, 
29570,09/27/1993,"0638      ",5.87,1.64,0.590,99,2.15, 
29571,09/28/1993,"0638      ",5.87,1.22,0.590,80,1.15, 
29572,09/29/1993,"0639      ",5.88,1.16,0.580,77,1.00, 
29573,09/30/1993,"0656      ",5.91,1.11,0.570,81,0.95, 
29574,10/01/1993,"0653      ",5.92,1.15,0.580,83,1.00, 
29575,10/02/1993,"0646      ",5.91,1.27,0.670,84,1.10, 
29576,10/03/1993,"0703      ",5.81,1.14,0.670,82,1.05, 
29577,10/04/1993,"0645      ",5.84,1.16,0.650,76,1.05, 
29578,10/05/1993,"0640      ",5.88,1.22,0.650,79,1.25, 
29579,10/06/1993,"0640      ",5.96,1.24,0.680,84,1.20, 
29580,10/07/1993,"0730      ",5.95,1.22,0.590,71,1.00, 
29581,10/08/1993,"0715      ",5.97,1.26,0.630,65,1.00, 
29582,10/09/1993,"0644      ",5.91,1.27,0.750,60,1.10, 
29583,10/10/1993,"0700      ",5.91,1.42,0.650,59,1.40, 
29584,10/11/1993,"0639      ",5.89,1.86,0.680,71,3.10, 
29585,10/12/1993,"0900      ",5.90,1.53,0.780,59,1.75, 
29586,10/13/1993,"0655      ",6.08,1.32,0.690,44,0.82, 
29587,10/14/1993,"0740      ",5.93,1.49,0.780,62,2.10, 
29588,10/15/1993,"0830      ",5.97,1.37,0.650,41,1.00, 
29589,10/16/1993,"0750      ",5.97,2.25,0.830,77,4.10, 
29590,10/17/1993,"0935      ",5.90,1.40,0.730,39,1.00, 
29591,10/18/1993,"0755      ",6.05,1.49,0.700,41,1.00, 
29592,10/19/1993,"0643      ",6.00,1.39,0.860,34,0.70, 
29593,10/20/1993,"0720      ",5.91,1.50,0.790,44,1.40, 
29594,10/21/1993,"0730      ",5.87,2.55,0.530,68,2.80, 
29595,10/22/1993,"0730      ",5.97,1.43,0.730,33,0.70, 
29596,10/23/1993,"0700      ",5.99,1.39,0.680,42,0.91, 
29597,10/24/1993,"0640      ",5.96,1.39,0.820,32,0.84, 
29598,10/25/1993,"0654      ",5.91,1.37,0.810,34,0.81, 
29599,10/26/1993,"0643      ",5.98,1.38,0.810,32,0.84, 
29600,10/27/1993,"0706      ",5.89,1.46,0.800,36,0.95, 
29601,10/28/1993,"0707      ",5.90,1.35,0.760,33,0.85, 
29602,10/29/1993,"0650      ",5.76,1.57,0.730,52,1.20, 
29603,10/30/1993,"0630      ",5.81,1.42,0.760,47,1.10, 
29604,10/31/1993,"0645      ",5.83,1.42,0.810,33,0.79, 
29605,11/01/1993,"0637      ",5.81,2.22,0.840,94,3.85, 
29606,11/02/1993,"0655      ",5.83,1.38,0.750,34,0.77, 
29607,11/03/1993,"0833      ",5.95,1.36,0.710,37,0.84, 
29608,11/04/1993,"0639      ",5.95,1.41,0.780,33,0.89, 
29609,11/05/1993,"0730      ",5.99,1.40,0.640,33,0.80, 
29610,11/06/1993,"0630      ",5.97,1.37,0.700,34,0.78, 
29611,11/07/1993,"0652      ",5.97,1.41,0.770,34,0.80, 
29612,11/08/1993,"0653      ",5.85,1.74,0.790,56,2.10, 
29613,11/09/1993,"0700      ",5.89,1.39,0.790,36,0.87, 
29614,11/10/1993,"0643      ",6.00,1.47,0.750,33,0.89, 
29615,11/11/1993,"0655      ",5.93,1.45,0.780,35,0.89, 
29616,11/12/1993,"0850      ",6.01,1.49,0.510,41,1.00, 
29617,11/13/1993,"0640      ",5.96,1.41,0.630,37,0.92, 
29618,11/14/1993,"0645      ",5.91,1.42,0.770,32,0.80, 
29619,11/15/1993,"0652      ",5.91,1.37,0.640,32,0.77, 
29620,11/16/1993,"0735      ",5.89,1.33,0.620,30,0.76, 
29621,11/17/1993,"0651      ",5.95,1.38,0.760,31,0.75, 
29622,11/18/1993,"0659      ",5.94,1.35,0.700,30,0.65, 
29623,11/19/1993,"0745      ",6.01,1.38,0.180,33,0.70, 
29624,11/20/1993,"0645      ",6.03,1.30,0.570,37,0.81, 
29625,11/21/1993,"0702      ",5.70,1.25,0.600,66,0.89, 
29626,11/22/1993,"0651      ",5.87,1.20,0.550,73,0.82, 
29627,11/23/1993,"1015      ",5.88,1.22,0.500,95,1.15, 
29628,11/24/1993,"0703      ",5.92,1.22,0.460,91,0.82, 
29629,11/25/1993,"0658      ",5.76,1.18,0.360,91,0.84, 
29630,11/26/1993,"0650      ",5.74,1.18,0.440,94,1.00, 
29631,11/27/1993,"0645      ",5.80,1.24,0.410,90,1.11, 
29632,11/28/1993,"0645      ",5.89,1.09,0.550,68,0.78, 
29633,11/29/1993,"0706      ",5.89,0.64,0.140,81,0.76, 
29634,11/30/1993,"0638      ",5.88,1.02,0.330,78,0.85, 
29635,12/01/1993,"0655      ",5.86,1.01,0.480,79,0.80, 
29636,12/02/1993,"0658      ",5.88,1.03,0.430,78,0.79, 
29637,12/03/1993,"0800      ",5.92,1.03,0.380,75,0.65, 
29638,12/04/1993,"0715      ",5.95,1.06,0.400,82,0.80, 
29639,12/05/1993,"0810      ",5.89,1.02,0.430,68,0.60, 
29640,12/06/1993,"0640      ",5.84,0.95,0.440,66,0.76, 
29641,12/07/1993,"0700      ",5.83,0.98,0.490,72,0.75, 
29642,12/08/1993,"0653      ",5.83,0.98,0.330,81,0.96, 
29643,12/09/1993,"0650      ",5.80,0.95,0.440,78,0.64, 
29644,12/10/1993,"0735      ",5.81,1.09,0.460,84,1.00, 
29645,12/11/1993,"0650      ",5.87,1.06,0.370,98,1.30, 
29646,12/12/1993,"0707      ",5.85,0.90,0.250,73,0.62, 
29647,12/13/1993,"0750      ",5.88,0.90,0.410,76,0.70, 
29648,12/14/1993,"0645      ",5.89,0.91,0.430,76,0.80, 
29649,12/15/1993,"0653      ",5.84,0.89,0.400,72,0.66, 
29650,12/16/1993,"0653      ",5.90,0.87,0.400,73,0.74, 
29651,12/17/1993,"0750      ",5.92,0.91,0.210,73,0.55, 
29652,12/18/1993,"0700      ",5.94,0.94,0.380,75,0.64, 
29653,12/19/1993,"0638      ",5.89,0.88,0.410,72,0.77, 
29654,12/20/1993,"0701      ",5.88,0.89,0.400,70,0.63, 
29655,12/21/1993,"0740      ",5.88,1.05,0.390,99,1.30, 
29656,12/22/1993,"0645      ",5.89,0.90,0.380,71,0.64, 
29657,12/23/1993,"0714      ",5.89,0.88,0.420,69,0.67, 
29658,12/24/1993,"0730      ",5.81,0.97,0.330,81,1.40, 
29659,12/25/1993,"0930      ",5.87,0.86,0.340,70,0.61, 
29660,12/26/1993,"0750      ",5.81,2.16,0.320,155,6.20, 
29661,12/27/1993,"0650      ",5.90,0.89,0.400,87,0.84, 
29662,12/28/1993,"0649      ",5.95,0.85,0.350,86,0.67, 
29663,12/29/1993,"0725      ",5.93,0.82,0.320,86,0.74, 
29664,12/30/1993,"0825      ",5.85,0.94,0.180,90,0.80, 
29665,12/31/1993,"0730      ",5.86,0.88,0.330,82,0.50, 
Total Samples:, , ,364,364,364,364,364

Average Value:, , ,5.91,1.14,0.522,59.3,1.15
